Wind_Speed
17 19 22 24 24 24 20 23 27 25 14 17 16 12 10 9 12 12 16 16 18 22 23 23 20 21 22 23 22 25 24 24 24 24 26 28 27 24 21 27 26 32 24
17 21 23 24 23 21 19 21 25 27 12 19 16 12 10 9 12 14 15 18 21 23 23 19 19 19 19 21 22 21 21 24 29 28 28 29 30 28 25 24 29 29 27
19 20 19 20 23 22 17 19 23 21 13 20 14 6 5 8 11 12 17 21 21 21 19 18 17 18 18 19 22 22 23 22 27 31 30 29 29 30 27 26 26 30 30
20 18 22 21 20 21 17 18 20 18 11 5 10 4 7 9 10 14 20 22 19 20 17 15 16 15 14 18 21 21 22 22 21 23 30 29 28 28 27 27 26 30 30
21 19 21 20 20 20 16 15 17 15 9 6 3 4 6 8 13 17 22 24 19 19 17 15 16 15 16 16 18 20 20 21 19 20 25 27 28 27 25 25 24 24 27
19 18 17 20 20 18 15 12 15 14 9 5 7 9 9 10 14 19 22 21 17 17 16 16 17 17 17 16 16 15 17 18 24 21 22 25 27 26 25 26 25 23 23
17 16 18 19 20 19 16 13 11 12 8 7 8 9 10 10 14 17 20 18 17 17 15 17 20 20 15 12 13 15 16 17 17 12 25 23 24 25 25 24 24 21 22
14 17 18 19 19 21 17 13 10 8 8 7 6 9 10 11 13 16 17 15 14 15 15 16 18 14 11 10 10 9 9 11 14 16 17 19 22 23 24 22 21 24 23
18 19 17 18 22 22 19 14 11 10 10 10 9 12 13 13 14 15 15 14 14 13 13 12 17 14 11 10 9 7 6 8 11 15 17 16 18 21 22 22 23 23 24
17 18 18 20 26 25 18 13 11 10 10 11 11 12 12 14 14 13 14 13 12 12 13 9 13 14 9 9 6 5 4 4 6 9 11 14 17 20 22 22 22 21 23
15 16 17 25 27 25 23 15 11 12 9 11 11 10 10 13 14 12 12 12 10 10 10 10 12 11 10 9 7 6 4 5 7 9 12 15 17 19 22 23 23 23 23
11 16 22 26 30 26 26 19 15 13 11 12 12 11 9 12 14 11 11 12 9 10 9 10 9 10 9 9 8 6 5 6 6 7 10 12 15 18 21 24 25 27 27
11 17 24 27 19 23 19 17 10 11 13 12 14 13 10 10 12 11 11 9 6 6 8 7 8 8 9 10 10 10 9 10 8 8 11 13 14 15 18 21 23 25 28
12 19 23 18 16 23 7 10 6 11 12 12 13 12 13 12 11 10 10 10 8 6 8 8 8 9 10 10 11 12 12 10 9 10 11 11 9 6 10 15 16 20 24
12 19 22 18 12 16 12 5 2 4 6 8 9 10 12 10 9 9 9 10 10 10 9 9 9 8 9 10 11 11 10 7 8 9 10 11 12 14 15 15 18 22 24
13 16 19 15 15 13 10 7 6 8 9 11 11 11 10 8 8 8 8 11 9 9 10 9 8 8 9 9 11 12 15 16 15 14 12 12 13 12 14 15 17 20 23
15 16 15 13 12 13 11 12 12 11 12 13 14 17 16 15 12 10 10 12 12 12 12 11 10 10 11 12 13 15 17 18 19 20 22 21 19 18 19 20 21 22 23
16 18 17 16 15 16 11 12 12 13 13 14 15 17 17 16 16 13 14 16 15 14 14 15 15 16 17 19 21 22 23 23 24 25 26 26 26 26 26 25 26 27 28
17 18 20 21 18 14 13 12 10 10 12 13 13 14 16 15 15 15 17 18 18 17 17 18 21 21 22 23 24 25 27 28 28 29 29 30 31 30 30 29 29 30 33
22 19 20 20 21 16 15 14 13 16 15 14 15 15 15 16 16 17 19 19 17 18 19 21 21 22 24 26 27 28 28 31 32 31 29 32 33 34 34 33 32 33 32
23 23 21 22 24 22 18 17 17 16 20 20 19 17 18 21 22 22 23 23 21 20 21 23 24 25 27 28 29 30 30 29 29 30 32 31 33 35 36 35 33 33 31
24 25 24 25 25 24 22 19 17 20 20 21 23 20 20 21 20 20 19 18 19 21 23 24 26 28 30 31 33 34 33 34 35 37 38 35 34 35 34 33 29 30 30
27 25 27 26 26 25 22 20 22 24 26 24 20 20 21 20 18 19 20 21 22 26 28 30 31 33 34 32 34 34 34 34 35 40 42 34 35 38 38 34 32 30 28
27 29 29 28 28 25 22 21 22 22 22 18 19 19 19 20 22 26 28 28 30 31 32 33 33 34 37 36 35 35 34 34 34 39 44 38 35 33 33 33 31 30 28
25 27 28 29 28 28 28 26 23 22 20 20 19 21 23 26 29 30 32 34 36 35 37 38 39 38 36 36 36 36 37 39 39 39 39 38 35 31 31 31 30 29 29
26 27 31 30 33 33 28 25 26 25 24 24 26 29 31 34 35 35 34 36 37 39 41 42 42 40 40 38 38 39 40 40 39 39 37 34 32 31 31 31 30 30 30
Wind_Direction
329 322 317 323 329 334 337 338 335 329 269 236 237 253 277 281 308 320 323 318 316 313 310 303 294 289 282 279 276 268 266 258 259 254 247 241 247 248 255 246 241 245 251
319 312 308 319 325 324 333 337 338 345 252 199 212 238 260 296 312 324 325 324 322 320 323 301 292 285 280 277 275 271 273 263 251 248 245 242 244 249 249 253 244 243 245
320 324 326 320 324 323 330 339 341 354 1 210 206 204 271 314 318 326 332 326 321 326 318 320 313 290 276 276 276 274 270 266 257 248 244 244 243 247 247 252 249 243 249
318 316 324 315 313 317 326 340 342 343 13 133 189 230 315 316 321 337 334 333 327 326 325 313 316 314 292 272 273 277 271 266 261 254 239 240 242 243 246 249 248 247 248
315 321 319 320 315 318 325 337 349 347 332 322 313 334 343 338 344 338 337 335 330 329 337 329 318 320 307 286 275 274 273 261 253 251 239 239 240 240 242 246 244 248 250
309 315 319 327 326 322 317 344 358 360 7 6 45 24 3 354 346 340 335 331 330 329 330 332 334 330 306 291 286 273 269 262 248 255 238 237 238 237 240 244 246 251 257
301 301 319 323 326 328 326 328 355 352 11 44 52 31 5 351 339 331 328 330 334 331 324 324 326 332 322 306 295 284 268 262 248 262 241 235 235 239 240 248 250 253 258
289 302 311 316 316 324 315 322 324 336 327 332 337 354 345 331 326 325 329 331 335 338 334 331 337 340 334 324 321 313 288 257 245 242 233 244 238 239 240 248 253 254 261
293 301 310 311 313 317 317 303 298 310 324 318 313 307 312 324 328 325 329 332 329 333 336 332 347 351 347 341 339 346 319 267 248 240 241 240 243 243 242 248 250 259 270
293 303 311 309 310 316 322 298 283 285 310 321 327 304 303 317 323 328 330 331 329 328 343 330 338 355 347 340 331 340 320 295 267 252 248 253 253 249 248 254 258 266 276
304 313 307 313 312 308 302 284 272 265 289 316 317 314 298 303 315 331 334 337 329 325 346 357 358 1 1 342 340 342 326 288 271 266 267 267 263 257 258 261 263 265 275
310 312 312 312 313 307 292 252 250 249 280 298 314 303 304 300 308 330 327 332 334 336 336 349 357 2 1 2 353 342 344 327 304 271 262 267 270 271 270 270 271 272 274
306 306 323 312 322 323 294 222 251 250 280 303 309 299 301 290 303 317 316 316 325 347 346 342 349 351 353 354 348 344 349 342 306 294 296 291 276 278 280 276 278 282 283
297 314 319 328 358 1 167 200 252 270 291 310 308 303 292 284 290 300 310 303 300 318 327 332 337 337 339 334 330 325 324 324 320 310 316 324 284 289 293 274 280 286 300
290 311 312 325 354 360 24 55 351 331 340 323 315 298 277 283 292 291 301 309 294 289 300 313 318 327 340 346 347 341 336 335 333 326 323 315 306 304 304 297 287 290 284
277 298 306 332 350 337 329 332 325 332 322 311 308 300 304 317 314 320 312 305 310 302 298 296 309 323 332 337 338 338 341 338 333 326 318 312 307 297 291 288 282 281 284
267 284 297 325 313 327 311 297 284 300 304 309 309 312 312 314 311 310 307 301 299 308 308 303 304 314 316 317 319 321 320 319 316 313 311 309 303 298 296 296 295 292 289
255 270 280 301 307 308 297 299 272 285 298 297 301 310 310 309 306 312 307 303 301 295 294 294 292 293 298 300 303 307 310 311 309 307 305 305 305 302 303 305 306 306 304
256 267 273 283 294 292 289 296 273 288 303 302 308 309 307 302 301 303 304 304 301 301 297 291 292 294 295 295 295 298 300 304 304 302 301 301 300 303 300 299 306 308 307
254 254 272 274 285 276 277 287 307 300 309 316 312 309 310 306 300 301 301 301 300 300 300 299 297 298 294 291 291 292 296 300 299 295 292 294 296 299 300 304 307 307 302
246 257 267 270 278 276 276 279 281 288 303 303 303 305 306 308 302 296 290 291 298 303 304 305 303 300 299 297 296 296 294 294 292 289 293 296 296 301 299 299 305 300 298
241 253 263 268 270 276 275 281 284 300 293 295 287 294 303 308 309 308 306 302 307 311 312 308 303 299 297 295 297 294 295 295 294 293 288 288 300 306 302 299 298 296 295
245 251 255 264 265 275 273 276 292 303 301 291 285 294 297 305 312 315 313 316 319 314 310 307 306 304 303 298 297 297 295 293 295 294 282 295 310 301 303 300 296 291 287
251 251 256 263 268 269 265 286 288 297 304 302 301 292 293 301 305 303 304 308 311 311 311 313 305 301 296 296 295 292 292 293 292 290 296 302 303 298 294 290 285 282 280
252 256 260 259 267 267 264 279 286 290 296 294 295 292 292 296 297 298 303 307 310 309 307 306 305 299 294 290 291 293 293 294 295 296 297 299 301 294 285 281 280 279 278
258 254 254 260 266 272 271 267 277 279 286 292 294 292 294 296 300 304 308 306 306 307 307 305 301 295 292 292 292 293 294 295 294 294 295 295 293 289 284 281 280 278 276
Height
5909 5906 5902 5900 5897 5894 5889 5884 5877 5873 5871 5871 5875 5878 5880 5879 5879 5879 5879 5879 5877 5874 5873 5870 5870 5869 5869 5869 5870 5869 5870 5872 5873 5878 5880 5883 5885 5887 5887 5889 5890 5891 5893
5907 5904 5901 5898 5896 5893 5888 5882 5876 5869 5864 5867 5873 5877 5879 5879 5878 5878 5877 5875 5873 5870 5867 5866 5864 5863 5864 5864 5863 5864 5864 5866 5868 5872 5875 5878 5880 5881 5882 5883 5885 5886 5889
5905 5902 5900 5896 5894 5891 5888 5883 5876 5871 5867 5868 5872 5874 5878 5877 5877 5876 5874 5872 5868 5865 5863 5861 5860 5858 5858 5859 5859 5860 5860 5860 5861 5865 5868 5871 5873 5874 5878 5878 5880 5882 5883
5903 5901 5899 5895 5892 5888 5885 5881 5877 5874 5871 5870 5872 5874 5874 5874 5875 5873 5872 5868 5865 5864 5862 5860 5856 5855 5853 5854 5855 5854 5855 5855 5855 5856 5860 5864 5866 5869 5872 5873 5875 5877 5877
5901 5899 5897 5893 5890 5886 5884 5882 5878 5875 5872 5871 5872 5872 5873 5873 5872 5871 5869 5866 5863 5862 5859 5857 5855 5852 5850 5850 5849 5848 5848 5849 5851 5853 5856 5859 5861 5863 5866 5869 5871 5873 5873
5899 5897 5895 5893 5889 5886 5883 5881 5879 5877 5873 5872 5872 5873 5873 5871 5870 5869 5866 5865 5861 5860 5857 5854 5852 5849 5847 5845 5844 5844 5844 5844 5847 5850 5852 5854 5856 5859 5862 5865 5866 5867 5869
5897 5896 5894 5891 5887 5884 5883 5882 5879 5878 5875 5873 5872 5871 5871 5870 5870 5868 5866 5863 5859 5857 5855 5853 5850 5846 5843 5842 5840 5839 5840 5840 5842 5845 5848 5850 5853 5855 5859 5860 5861 5863 5864
5896 5894 5892 5889 5886 5883 5881 5880 5879 5877 5876 5874 5873 5871 5871 5870 5869 5866 5864 5861 5858 5856 5854 5851 5848 5844 5842 5840 5838 5836 5837 5838 5840 5842 5845 5848 5849 5851 5854 5855 5857 5858 5859
5894 5892 5889 5886 5883 5881 5878 5876 5876 5875 5873 5873 5872 5871 5871 5870 5867 5865 5862 5859 5857 5854 5852 5850 5846 5843 5841 5839 5837 5835 5835 5837 5838 5840 5843 5844 5845 5848 5850 5851 5852 5854 5854
5892 5889 5886 5883 5880 5877 5875 5874 5873 5873 5872 5872 5870 5871 5871 5869 5867 5864 5861 5857 5856 5854 5851 5849 5846 5843 5840 5839 5835 5836 5835 5836 5838 5839 5841 5842 5843 5844 5845 5846 5848 5849 5849
5890 5887 5884 5880 5876 5873 5870 5871 5870 5872 5871 5872 5871 5870 5870 5869 5866 5862 5859 5856 5855 5854 5851 5848 5846 5844 5841 5840 5838 5837 5837 5837 5837 5838 5839 5840 5840 5841 5842 5843 5844 5844 5844
5888 5886 5882 5878 5873 5868 5865 5866 5867 5870 5870 5871 5870 5869 5868 5868 5865 5861 5860 5858 5855 5853 5852 5849 5846 5844 5842 5841 5840 5839 5837 5837 5837 5836 5836 5836 5836 5836 5837 5839 5839 5840 5840
5886 5884 5881 5876 5871 5863 5857 5861 5865 5868 5869 5868 5868 5867 5866 5866 5863 5862 5860 5858 5855 5853 5851 5850 5848 5846 5844 5842 5841 5840 5838 5837 5835 5835 5834 5833 5832 5832 5832 5833 5834 5835 5834
5885 5883 5880 5875 5869 5861 5858 5862 5864 5867 5868 5867 5867 5866 5866 5865 5862 5860 5859 5857 5855 5853 5852 5851 5848 5847 5844 5843 5841 5840 5839 5837 5836 5835 5833 5831 5830 5830 5828 5828 5828 5829 5829
5883 5880 5878 5874 5870 5866 5864 5864 5865 5866 5866 5866 5866 5866 5866 5864 5861 5859 5857 5856 5855 5853 5851 5850 5848 5846 5844 5843 5841 5840 5838 5837 5836 5834 5833 5831 5830 5828 5827 5825 5824 5823 5823
5879 5878 5876 5872 5870 5868 5867 5866 5866 5865 5865 5866 5864 5864 5863 5860 5858 5856 5855 5855 5853 5851 5850 5848 5846 5845 5843 5842 5840 5839 5837 5837 5836 5835 5833 5830 5828 5827 5825 5824 5822 5821 5819
5875 5875 5874 5872 5870 5869 5867 5866 5865 5865 5864 5862 5861 5861 5858 5857 5855 5854 5853 5852 5850 5848 5847 5846 5844 5843 5841 5840 5838 5837 5835 5833 5832 5830 5829 5827 5825 5823 5821 5819 5816 5814 5812
5872 5872 5871 5871 5869 5867 5866 5864 5863 5862 5861 5859 5859 5857 5855 5854 5852 5851 5850 5848 5846 5844 5844 5843 5841 5839 5838 5836 5834 5833 5831 5830 5828 5826 5824 5822 5819 5817 5815 5813 5810 5808 5805
5867 5868 5868 5867 5866 5865 5864 5861 5860 5860 5858 5856 5855 5854 5852 5851 5849 5848 5847 5844 5842 5841 5840 5839 5837 5836 5834 5832 5829 5827 5825 5824 5822 5820 5818 5815 5812 5810 5809 5806 5803 5801 5797
5862 5863 5864 5863 5862 5861 5860 5858 5857 5857 5855 5853 5852 5850 5849 5848 5846 5844 5843 5840 5838 5836 5835 5834 5832 5830 5828 5826 5823 5820 5819 5816 5814 5812 5810 5807 5805 5803 5800 5797 5795 5792 5790
5856 5857 5858 5858 5857 5857 5856 5855 5854 5853 5851 5850 5849 5846 5845 5844 5842 5840 5837 5835 5834 5831 5829 5827 5825 5822 5821 5820 5817 5814 5812 5810 5808 5805 5803 5800 5798 5796 5793 5789 5786 5783 5781
5850 5851 5852 5851 5851 5852 5851 5850 5849 5848 5846 5845 5843 5842 5841 5839 5836 5834 5831 5830 5828 5825 5823 5821 5819 5816 5814 5813 5811 5808 5804 5802 5800 5797 5795 5792 5789 5787 5785 5782 5777 5775 5771
5843 5844 5845 5845 5845 5845 5845 5845 5844 5842 5840 5837 5836 5836 5835 5834 5831 5830 5828 5826 5822 5821 5819 5816 5812 5809 5806 5804 5803 5800 5797 5794 5791 5788 5786 5782 5781 5779 5776 5772 5769 5766 5763
5838 5838 5839 5839 5839 5839 5840 5840 5839 5837 5835 5833 5832 5830 5829 5828 5826 5824 5822 5820 5817 5814 5810 5808 5806 5803 5800 5797 5794 5792 5789 5786 5783 5779 5777 5774 5772 5769 5767 5764 5760 5757 5755
5831 5832 5833 5833 5833 5834 5834 5834 5833 5832 5831 5829 5827 5826 5824 5822 5820 5817 5814 5811 5809 5806 5803 5800 5797 5794 5791 5789 5785 5782 5778 5775 5772 5770 5767 5765 5762 5760 5757 5754 5751 5749 5748
5825 5825 5824 5826 5827 5826 5825 5825 5827 5826 5824 5823 5821 5819 5816 5813 5811 5809 5805 5803 5800 5797 5793 5790 5787 5785 5782 5778 5775 5772 5769 5766 5763 5760 5758 5755 5752 5750 5748 5746 5743 5742 5740